Regional Weather Roundup
Issued by NWS Charleston, SC

Current Version | Previous Version | Text Only | Print | Product List | Glossary Off
Versions: 1 2 3 4 5 6 7 8 9 10 11 12 13 14 15 16 17 18 19 20 21 22 23 24 25 26 27 28 29 30 31 32 33 34 35 36 37 38 39 40 41 42 43 44 45 46 47 48 49 50

000
ASUS42 KCHS 290612
RWRCHS

REGIONAL WEATHER ROUNDUP
NATIONAL WEATHER SERVICE CHARLESTON SC
200 AM EDT MON MAY 29 2017

NOTE: "FAIR" INDICATES FEW OR NO CLOUDS BELOW 12,000 FEET WITH NO
SIGNIFICANT WEATHER AND/OR OBSTRUCTIONS TO VISIBILITY.

NOT ALL STATIONS ARE QUALITY CONTROLLED. USE DATA WITH CAUTION...
ESPECIALLY DEWPOINT OBSERVATIONS.

SCZ027-030-031-034>040-042>050-290700-
...SOUTHEAST SOUTH CAROLINA...

CITY           SKY/WX    TMP DP  RH WIND       PRES   REMARKS
N CHARLESTON   PTCLDY    77  72  84 SW8       29.90R
6HR MIN TEMP:  75; 6HR MAX TEMP:  83;

WATERFRONT PRK   N/A     78  76  94 SW6       29.88S
JOHNS ISLAND   FAIR      79  75  89 SW9       29.91R
PINOPOLIS        N/A     77  72  83 VRB2      29.82S
MONCKS CORNER  FAIR      73  70  88 SW3       29.89S
SUMMERVILLE    FAIR      73  70  88 CALM      29.91R
BEAUFORT MCAS  CLEAR     76  72  87 SW6       29.92S
6HR MIN TEMP:  76; 6HR MAX TEMP:  86;

BEAUFORT ARPT  FAIR      77  73  88 SW5       29.92S
HILTON HEAD IS CLEAR     79  75  89 S5        29.94R
WALTERBORO     CLEAR     75  68  78 SW7       29.92S
ALLENDALE      FAIR      75  68  78 CALM      29.91S

...SOUTHERN MIDLANDS AND PEE DEE...

CITY           SKY/WX    TMP DP  RH WIND       PRES   REMARKS
GEORGETOWN     FAIR      72  72 100 CALM      29.88S
KINGSTREE      FAIR     N/A N/A N/A CALM      29.88S
ORANGEBURG     CLEAR     71  69  93 CALM      29.91R
6HR MIN TEMP:  71; 6HR MAX TEMP:  83; 6HR PCP: TRACE;

BARNWELL       FAIR      75  70  83 CALM      29.92S
AIKEN          FAIR      70  66  88 SW3       29.95S
MANNING        FAIR      72  70  94 W8        29.89R
COLUMBIA       CLOUDY    72  68  87 SW3       29.89S
6HR MIN TEMP:  71; 6HR MAX TEMP:  80; 6HR PCP: TRACE;

SUMTER         CLEAR     73  68  84 W7        29.87R
6HR MIN TEMP:  72; 6HR MAX TEMP:  75; 6HR PCP:  0.08;

FLORENCE       CLEAR     70  70 100 W3        29.88R
6HR MIN TEMP:  69; 6HR MAX TEMP:  84; 6HR PCP:  0.51;

MYRTLE BEACH   NOT AVBL
N MYRTLE BEACH CLEAR     72  70  93 W3        29.86S
6HR MIN TEMP:  71; 6HR MAX TEMP:  82; 6HR PCP:  0.02;


$$

GAZ063-065-086>088-099>101-113>116-118-119-134>141-150-290700-
...SOUTHEAST GEORGIA...

CITY           SKY/WX    TMP DP  RH WIND       PRES   REMARKS
SAVANNAH ARPT  PTCLDY    78  66  66 W9        29.94S
6HR MIN TEMP:  76; 6HR MAX TEMP:  88;

HUNTER AAF     CLEAR     77  72  84 W5        29.92R
6HR MIN TEMP:  74; 6HR MAX TEMP:  88;

FORT STEWART   CLEAR     79  67  66 W8        29.94R
6HR MIN TEMP:  73; 6HR MAX TEMP:  88;

STATESBORO     CLEAR     78  69  73 W5        29.95R
SYLVANIA       CLEAR     77  70  79 CALM      29.94S
CLAXTON        FAIR      78  74  88 SW6       29.95S

...CSRA...CENTRAL AND FAR SOUTHEAST GEORGIA...

CITY           SKY/WX    TMP DP  RH WIND       PRES   REMARKS
THOMSON        CLEAR     68  66  93 W3        29.97S
AUGUSTA-BUSH   CLOUDY    71  68  90 CALM      29.90F
6HR MIN TEMP:  71; 6HR MAX TEMP:  87;

AUGUSTA-DANIEL PTCLDY    76  65  68 CALM      29.92F
SWAINSBORO     FAIR      75  68  78 W6        29.95F
VIDALIA        PTCLDY    77  70  78 SW3       29.96F
EASTMAN        FAIR      76  63  62 SW5       29.99S
HAZLEHURST     FAIR      77  72  84 SW5       29.97S
ALMA           PTCLDY    80  70  71 W7        29.98R
6HR MIN TEMP:  79; 6HR MAX TEMP:  89;

WAYCROSS       CLEAR     80  79  98 W6        29.98S
JESUP          FAIR      77  70  78 SW3       29.97S
BAXLEY         FAIR      79  73  83 CALM      29.98R
BRUNSWICK      CLEAR     79  73  83 W8        29.98R
SAINT SIMONS   CLEAR     80  74  81 W7        29.97R
6HR MIN TEMP:  80; 6HR MAX TEMP:  90;


$$

SCZ027-028-034-036>038-045-046-048>050-GAZ119-141-290700-
...LAKE AND SUPPLEMENTAL COASTAL OBSERVATIONS...

STATION/POSITION TIME  TEMP    WIND        PRES    WAVE   SWELL
                       AIR SEA DIR/SP/G            HT/PER HT/PER/DIR
                 (UTC) (F)     (DEG/KT/KT) (MB)    (FT/S) (FT/S/D)
WINYAH BAY       NOT AVBL
LAKE MURRAY      0520   74     280/  2/  3 1011.5R
ACE BASIN NERRS  NOT AVBL
FORT PULASKI     0548          250/  5/  7 1014.2R
SAPELO ISLAND    0500   80     240/  8     1014.0

$$

ANZ835-935-AMZ111-154-330-350-352-354-370-450-454-472-290700-
...C-MAN AND BUOY OBSERVATIONS...

STATION/POSITION TIME  TEMP    WIND        PRES    WAVE   SWELL
                       AIR SEA DIR/SP/G            HT/PER HT/PER/DIR
                 (UTC) (F)     (DEG/KT/KT) (MB)    (FT/S) (FT/S/D)
BUOY 41004       0550   78 76  220/ 16/ 19 1012.0F   3/ 5   2/130/ 8
BUOY 41008       0450   80 78  210/ 12/ 14 1013.5    2/ 4   2/100/10
FOLLY BEACH CMAN 0500   78     220/ 13/ 16 1013.1F
CAPERS NEARSHORE 0508   80 78  230/ 16/ 21 1011.8F
FRIPP NEARSHORE  0508   79 79  210/ 12/ 16 1012.7R


STATION/POSITION TIME  TEMP    WIND        PRES    WAVE   SWELL
                       AIR SEA DIR/SP/G            HT/PER HT/PER/DIR
                 (UTC) (F)     (DEG/KT/KT) (MB)    (FT/S) (FT/S/D)
5E ST. MARYS GA  0530      79                N/A     2/ 4
FRYING PAN BUOY  0550   76 75  230/ 16/ 17 1011.0F   3/ 5
BUOY 41025       0550   76 76  240/ 16/ 17 1008.2F   6/ 6   2/280/11
CAPE LOOKOUT NC  0500   74     250/ 11/ 14 1009.1S
BUOY 41002       0550   77 77  210/ 12/ 16 1014.3F   4/ 6   2/220/ 7
BUOY 41010       0550   80 80  190/ 14/ 17 1014.5F   2/ 4   2/ 90/ 8
ST AUGUSTINE FL  0600   76 78  250/  6/  7 1016.1F


$$




USA.gov is the U.S. government's official web portal to all federal, state and local government web resources and services.